BLOCK DM-SL R/B, 29521

Orbit data source: Space-Track

BLOCK DM-SL R/B, 29521 is space debris in HEO originally from a launch on Mon, 30 Oct 2006 UTC launched from the Sea Launch (SEAL). Debris objects in space refer to the collection of defunct objects orbiting the Earth. Examples of debris include non-operational satellites, rocket bodies, and fragments generated from explosions, collisions, or faulty payload assembly.

Loading next visibility...
Identifier
29521, 2006-049B
Orbit
HEO
Country
Flag of UnknownUnknown / SEAL
Related business
Manufacturer
RKKE
Mission
Spacecraft
Bus & Motor
BLOK DM2, 11D58M
Mass
~3,070 kg wet, 3,070 kg dry
Launch date (UTC)
2006-10-30 (19 years ago)
Launch vehicle
Unknown
Launch site
Sea Launch (SEAL)
Object type
Payload
Rocket body
Debris
Shape & HBR
Cyl, 3.1 m
Radar Cross Section
23.684 m², Large (>1 m²)

Expand to show TLE details & history
Last TLE update: 10 hours ago

TLE from 10 hours ago
0 BLOCK DM-SL R/B
1 29521U 06049B   25340.87629469 -.00000099  00000-0  00000-0 0  9992
2 29521   0.2298  57.1178 6931773 340.3850  13.0260  2.18866708152736
Epoch: 2025-12-06T21:01Z
TLE epoch observation values (Epoch: 2025-12-06T21:01:51.861Z)
Latitude
0.21407°
Longitude
81.61805°
Altitude
4,692.16 km
Speed
7.49 km/s
True Right ascension
07h 31m 55s
True Declination
0° 12' 48"
Sunlit
Object was in daylight at epoch
Visualization orbit readout
Latitude
Unknown
Longitude
Unknown
Altitude
Unknown
Speed
Unknown
Apparent Right ascension
Unknown
Apparent Declination
Unknown
Sunlit
N/A
Visualization observer readout
Local Sidereal Time
05:08:27
Azimuth
Unknown
Elevation
Unknown
Doppler factor
Unknown
Orbital elements
Apogee altitude
36,057.699 km
Perigee altitude
1,311.712 km
Semi-major axis
25,062.842 km
Eccentricity
0.69318
Inclination
0.2298°
RAAN
57.1178°
Arg. of periapsis
340.385°
True anomaly
76.07335°
Mean anomaly
13.026°
Eccentric anomaly
36.83797°
Mean motion
0.54701 °/min
Orbital period
658.12 mins
BSTAR
0
Loading maneuver chart data...
Computing Atmospheric mass density...
Loading historical data...
Loading historical data...
Loading historical data...
Loading historical data...
Loading historical data...
Loading historical data...
Loading historical data...
Other satellites on launch #49 in the year 2006 (2006-10-30 UTC)

Documentation

Showing up to 5 results
|